Location: Clermont
(50.2608°N, 4.3172°E)
Time: 22:55:54
(UTC+00:00)

ATLAS 3B R/B - Pass Details

Date: 13 August 2020
Orbit: 1016 x 1179 km, 63.8° (Epoch: 22 September)

Event Time Altitude Azimuth Distance (km) Brightness Sun altitude
Exits shadow 22:01:47 19° 206° (SSW) 2,187 4.0 -21.4°
Maximum altitude 22:06:34 70° 127° (SE) 1,080 2.5 -21.7°
Drops below altitude 10° 22:13:11 10° 45° (NE) 2,843 5.2 -22.2°
Sets 22:15:51 0° 44° (NE) 3,816 5.9 -22.4°
